Theta_e
349 343 343 348 360 365 364 361 358 360 355 349 345 346 347 348 352 353 342 341 338 341 345 346 348 350 349 347 349 350 348 343 348 349 346 348 349 348 345 343 346 351 350 351 351 351 351 351 352
347 344 348 353 367 363 364 359 363 359 352 346 352 351 355 357 348 342 343 341 337 340 345 346 347 349 350 348 349 350 350 345 347 347 344 347 350 347 350 349 349 350 351 351 350 351 351 350 350
343 349 354 359 360 366 366 362 362 355 348 351 356 353 354 352 343 341 343 340 339 342 342 346 347 349 350 349 349 349 350 346 348 348 349 350 348 349 347 347 350 348 349 351 350 350 350 350 349
347 350 349 359 364 361 360 359 359 357 355 354 354 358 348 344 341 345 341 338 340 342 341 348 350 351 351 350 348 351 350 347 349 347 346 350 349 345 350 350 349 350 349 350 350 349 350 350 347
349 351 357 361 362 360 358 357 353 358 358 356 354 355 350 347 348 343 341 340 339 342 343 349 350 351 351 351 349 346 349 348 350 349 350 350 350 350 350 347 349 348 348 349 348 349 345 345 346
355 354 363 364 362 360 355 353 353 357 357 355 354 353 353 347 345 342 341 341 340 343 347 348 350 351 350 350 351 350 349 350 350 349 351 346 347 347 347 349 349 348 348 348 348 345 345 346 345
359 355 364 361 363 361 356 351 355 359 357 356 352 356 352 347 345 343 341 342 344 346 347 349 349 350 352 348 348 350 350 349 348 350 349 350 350 348 346 349 349 349 347 347 346 344 345 345 345
354 356 361 361 363 359 356 353 357 358 357 350 349 355 355 347 347 343 341 344 346 346 346 348 352 351 352 351 351 351 351 350 350 347 345 346 349 346 348 346 349 349 348 347 346 343 344 344 344
351 361 363 361 361 361 359 361 357 353 354 353 351 349 348 348 347 347 348 349 349 347 346 351 352 351 349 350 351 351 349 349 349 350 346 347 348 347 347 347 347 349 348 346 346 343 343 344 344
352 361 360 355 356 357 357 358 356 354 354 353 352 348 348 348 347 347 347 346 348 351 349 349 351 348 349 349 351 349 350 349 350 347 348 347 347 344 346 348 348 349 349 349 339 341 342 343 343
351 359 354 354 354 352 357 357 351 354 353 355 353 350 349 347 346 346 346 346 347 349 348 348 348 347 348 349 350 348 349 348 346 347 347 345 345 343 344 347 348 349 344 341 339 340 341 342 343
341 344 349 352 353 352 357 351 353 352 358 350 348 349 348 347 346 346 345 346 347 349 348 346 348 346 348 348 348 347 346 344 347 348 348 343 342 343 342 345 345 345 341 338 338 335 339 341 342
338 339 337 339 352 349 353 355 355 354 354 349 348 349 348 347 346 346 344 345 346 348 348 345 344 344 346 346 344 345 344 343 346 347 347 344 339 339 341 343 343 342 342 340 337 339 339 341 342
334 335 334 333 345 350 355 354 351 352 354 352 349 349 348 346 346 345 344 344 346 346 346 344 340 345 345 345 343 343 344 345 346 347 347 345 343 344 344 343 343 342 340 339 341 341 341 340 342
332 335 328 351 347 352 351 354 353 354 357 356 351 348 347 346 346 345 344 343 343 343 345 345 341 344 344 342 343 344 344 346 348 348 347 346 346 345 344 344 344 343 337 338 337 342 342 343 342
326 323 325 351 357 353 350 359 354 356 357 356 351 349 348 346 346 345 344 342 342 344 345 343 344 343 343 341 341 344 346 347 347 348 347 347 346 345 344 346 345 344 342 340 341 342 342 342 341
324 331 329 328 354 357 352 355 353 355 357 355 352 349 347 346 345 345 345 343 341 343 344 341 344 342 342 343 346 348 348 348 347 348 348 347 347 346 345 345 343 342 342 343 342 342 342 342 343
331 329 326 330 355 358 359 357 353 355 356 355 352 350 348 345 345 345 345 344 342 343 342 341 343 344 344 345 346 348 349 349 349 349 348 347 348 347 346 345 343 342 341 341 343 343 342 342 343
327 326 326 325 324 325 328 349 353 355 355 355 353 350 349 346 344 344 344 344 344 345 343 344 344 346 347 348 348 348 349 347 349 349 349 347 349 348 346 346 344 345 344 343 343 342 343 344 342
326 327 326 326 324 322 332 343 354 354 355 354 354 351 349 348 344 343 342 344 344 345 344 345 344 346 347 348 348 348 348 347 347 349 349 350 350 348 347 348 344 346 346 344 344 342 343 345 342
326 325 326 327 324 345 351 340 357 353 350 348 352 350 348 348 343 343 341 343 344 344 345 345 345 345 347 350 348 348 348 347 348 350 349 351 349 349 348 348 346 347 347 345 343 342 345 343 341
329 324 326 326 321 321 325 320 343 354 353 351 347 348 346 347 342 341 341 343 345 345 345 345 345 345 347 349 347 348 349 346 347 349 348 349 349 350 349 349 346 347 346 345 347 345 344 341 341
326 324 324 324 320 319 320 318 320 351 355 353 351 347 346 344 345 341 341 344 345 345 345 345 346 346 347 350 348 348 348 348 347 348 349 349 350 351 351 349 346 346 349 348 348 343 345 346 345
323 318 314 313 314 319 319 318 318 354 354 353 350 350 347 345 345 344 340 343 345 345 345 345 346 346 347 347 348 347 346 348 348 348 349 350 350 350 351 350 349 348 347 348 347 344 347 346 346
315 315 317 320 319 321 314 318 319 320 325 348 349 348 347 345 344 346 341 340 345 345 345 345 346 346 346 346 346 346 344 347 347 347 348 349 349 349 349 351 351 348 348 349 347 345 346 348 347
314 315 317 323 320 320 315 320 328 326 328 333 344 344 344 345 345 345 345 340 343 344 344 344 344 346 347 346 344 344 344 344 347 347 346 345 349 349 348 349 350 351 349 350 348 347 347 348 349
314 313 313 314 314 317 317 320 319 326 328 328 330 340 342 343 345 345 346 344 339 344 344 344 344 345 346 345 344 343 344 343 345 346 346 346 346 349 350 350 350 351 350 348 350 349 347 346 347
310 310 315 313 321 323 319 320 323 326 326 327 331 331 332 334 344 346 345 345 342 341 344 343 344 344 345 345 344 344 344 343 342 344 346 346 346 348 349 350 350 351 352 351 348 350 349 349 349
311 311 309 309 312 319 321 326 316 316 321 325 328 335 338 341 337 340 345 345 343 340 343 343 344 344 344 345 345 345 344 343 343 342 343 345 346 347 349 350 350 350 352 352 352 348 349 349 350
309 310 308 312 315 311 315 323 313 312 316 323 325 328 338 342 342 334 338 344 344 341 341 343 344 344 344 344 345 345 344 344 344 342 340 341 345 345 348 351 351 350 350 351 352 351 347 347 349
Wind_Speed
7 8 6 2 2 2 2 3 2 3 4 4 13 5 8 5 4 3 9 19 35 31 25 21 17 14 12 10 11 10 9 9 9 9 7 9 8 9 8 9 9 10 11 11 11 11 12 12 13
10 9 3 1 1 3 3 4 6 7 2 16 7 9 3 3 3 8 14 31 34 31 26 21 17 14 12 11 10 9 9 8 8 8 8 9 8 9 8 8 9 10 10 11 11 12 11 12 13
11 3 1 0 2 2 1 5 8 5 16 8 4 6 3 3 6 17 17 36 34 29 24 20 16 14 13 11 11 10 9 8 8 8 8 9 7 9 9 9 10 11 10 11 11 12 13 13 11
7 2 1 1 3 1 1 4 11 4 8 9 4 7 4 6 12 11 34 36 33 28 23 18 15 14 13 12 11 10 9 9 9 9 8 8 7 9 9 10 11 10 11 12 11 12 13 12 10
1 2 2 2 3 2 1 1 6 8 1 6 0 4 7 3 11 29 33 34 32 27 21 17 15 14 13 12 10 9 9 10 9 9 9 8 7 8 8 10 10 11 11 12 11 11 12 10 9
1 2 1 1 1 3 2 5 5 4 2 9 7 5 4 17 26 27 31 32 29 26 20 17 15 14 12 11 9 10 10 10 9 8 8 7 8 8 9 10 10 11 11 11 11 12 10 8 10
1 1 2 4 3 2 3 5 2 1 6 6 7 4 5 13 24 25 31 29 26 23 20 18 16 13 12 11 10 10 11 10 8 8 7 7 7 8 9 11 11 11 11 10 11 12 11 10 11
1 1 2 3 4 3 5 5 1 8 9 7 12 6 7 14 24 28 29 26 25 22 19 17 15 13 12 11 11 11 10 10 9 7 7 8 7 7 9 11 12 12 11 10 10 12 11 11 10
1 2 2 1 5 6 8 7 3 1 2 2 3 6 19 25 29 27 24 21 22 21 18 17 15 14 13 11 11 10 10 9 9 7 7 8 8 8 8 9 11 11 9 11 11 10 9 10 10
2 1 4 2 3 3 7 6 6 2 4 7 14 22 27 27 26 24 21 20 19 20 20 18 16 14 14 12 11 12 11 10 10 9 8 8 8 8 10 9 10 10 11 11 11 8 8 8 9
4 2 3 2 4 7 5 8 5 7 1 2 17 19 22 23 22 21 20 23 21 20 22 19 17 15 15 14 12 13 12 10 10 9 8 7 8 9 10 11 10 10 10 12 11 7 7 6 4
2 9 6 5 5 5 6 9 3 5 4 12 18 19 19 16 18 19 18 21 21 20 24 21 18 17 16 15 13 14 13 12 10 8 7 6 8 9 9 9 10 9 9 9 9 6 6 5 5
4 6 7 8 9 5 8 7 2 7 7 15 19 19 16 14 18 18 19 21 24 25 25 23 21 19 17 16 15 15 14 12 10 8 7 8 8 7 7 8 9 8 7 7 9 6 4 8 6
2 6 10 7 9 6 8 4 1 6 11 15 17 17 15 14 17 15 18 22 26 26 26 24 22 20 18 17 17 16 14 12 10 9 7 8 8 5 5 6 8 7 6 6 7 6 5 7 3
3 2 5 6 5 5 10 2 6 4 12 14 19 16 16 15 18 19 24 26 31 29 27 26 24 21 19 18 18 16 14 12 10 8 9 9 8 7 7 7 6 7 7 8 6 7 7 3 2
3 4 2 1 3 7 0 4 5 8 13 16 19 17 17 15 22 22 25 26 28 28 27 27 25 23 21 19 18 16 14 12 10 9 9 9 8 7 6 6 6 6 6 7 8 5 5 3 3
5 3 2 4 6 6 2 5 6 7 10 16 17 19 16 14 19 22 24 30 31 31 29 28 28 26 23 20 18 16 13 12 12 10 9 9 9 7 6 4 6 6 6 8 7 6 3 3 3
3 5 2 4 5 5 5 10 5 10 10 14 16 17 16 16 18 26 26 31 31 33 31 31 30 28 25 21 19 17 16 14 15 12 11 9 7 7 6 6 7 7 7 7 7 4 5 3 2
3 5 3 2 4 3 7 9 4 9 6 11 12 14 18 16 18 25 28 31 30 27 32 33 33 30 27 23 19 18 18 14 14 14 12 12 8 8 6 7 7 7 7 7 6 5 4 2 3
3 1 1 3 2 4 3 3 4 6 6 10 15 13 15 14 13 19 24 27 30 33 37 35 35 31 29 26 23 21 19 15 12 13 10 9 9 8 9 6 8 6 8 7 8 6 3 1 4
2 4 2 3 4 4 2 4 2 1 2 4 7 12 8 14 16 16 23 27 29 29 33 39 38 36 33 28 26 20 17 13 15 14 13 11 8 7 7 8 7 7 8 8 7 7 6 5 5
1 7 5 3 3 2 2 3 2 3 4 4 5 8 8 8 11 16 23 26 29 34 38 41 40 38 37 31 30 26 23 18 20 17 15 11 9 8 7 9 7 8 7 8 7 6 5 6 4
7 4 6 4 3 3 3 4 4 2 7 13 13 10 9 7 8 15 23 29 33 34 35 37 41 39 39 36 32 28 23 22 20 18 16 15 12 11 9 8 10 9 9 9 8 9 6 4 3
4 5 7 5 3 2 5 5 4 5 7 11 11 14 12 10 9 9 23 29 30 32 33 35 37 43 43 40 37 33 29 23 20 18 16 16 14 12 12 11 11 11 10 10 11 10 7 4 2
5 6 2 2 2 5 3 4 5 6 9 11 12 14 17 15 10 12 14 25 28 30 32 33 36 36 43 41 39 37 34 29 26 22 18 17 18 16 15 14 12 12 11 10 11 11 9 8 5
3 7 5 5 5 3 4 4 1 5 9 8 6 6 11 12 12 13 16 25 30 32 32 33 35 39 40 43 40 38 37 33 29 24 22 19 19 19 16 16 14 13 11 10 12 12 10 10 9
3 4 3 7 3 4 2 3 3 9 16 15 13 4 4 10 15 16 21 25 28 32 35 37 37 38 40 46 43 40 36 36 34 28 23 21 20 22 21 19 18 16 14 13 13 14 14 13 12
7 1 3 3 4 3 3 3 4 13 16 15 15 9 8 6 8 12 16 26 31 35 37 37 39 44 46 45 45 43 39 36 36 33 28 24 22 20 22 22 20 20 19 15 14 15 14 14 14
5 5 6 5 3 5 4 2 5 6 7 11 14 15 11 9 10 11 16 27 32 33 35 38 36 37 37 41 41 42 42 38 34 35 33 30 25 21 20 22 23 22 21 20 18 17 15 14 12
5 3 3 4 3 1 3 3 4 8 10 9 14 16 15 12 11 10 13 20 24 29 32 36 37 35 39 40 39 43 45 42 39 35 35 34 31 26 19 18 22 24 23 22 22 20 18 17 16
Wind_Direction
141 144 129 55 332 273 340 18 320 315 117 158 143 136 169 114 169 188 156 155 153 153 153 155 158 157 156 141 150 142 130 118 118 112 112 112 106 113 115 136 131 120 113 107 104 103 102 103 104
156 140 69 94 344 329 8 8 313 277 130 133 89 117 100 107 81 121 125 155 154 152 154 157 158 159 155 147 147 140 137 125 127 126 124 118 116 113 115 128 128 127 119 113 111 107 107 105 107
153 84 43 7 125 240 321 25 354 12 129 134 99 47 54 91 100 143 150 153 152 152 156 155 159 161 157 150 146 146 144 139 137 136 129 124 123 124 123 124 133 125 123 122 116 116 113 109 113
157 123 77 89 41 118 20 338 354 133 80 53 80 74 73 281 138 154 149 153 151 151 156 154 157 159 160 157 153 152 151 146 137 140 126 116 118 119 124 123 124 121 123 116 116 115 116 115 115
280 31 93 175 183 241 157 285 357 322 33 104 193 84 111 3 131 143 148 154 151 151 155 157 158 157 159 157 163 160 158 146 140 137 121 125 123 116 115 114 116 108 116 114 112 113 116 119 121
83 155 235 93 39 342 357 2 344 304 123 120 96 109 90 130 130 145 151 154 152 151 154 157 157 161 164 157 161 162 149 148 144 132 134 133 130 117 121 114 108 109 108 111 115 113 106 109 125
238 142 286 124 134 57 343 25 279 6 147 102 129 90 107 133 137 148 154 152 152 153 157 158 160 159 163 158 158 156 151 149 145 141 132 129 120 122 119 114 117 116 110 106 110 110 102 99 122
236 150 298 70 100 218 196 189 198 45 62 140 144 143 156 152 142 150 153 152 153 155 160 158 161 163 155 158 161 158 155 152 151 138 140 142 128 114 116 110 108 107 106 109 111 117 107 104 119
219 359 348 172 147 168 183 180 95 173 3 216 130 131 128 139 140 139 139 145 152 156 163 164 160 162 163 158 155 163 154 150 142 140 139 138 137 130 124 118 106 106 109 117 122 127 118 112 116
129 211 212 263 153 187 138 164 132 104 352 72 88 111 132 137 141 144 151 155 158 163 167 169 168 167 161 158 166 165 161 161 156 145 136 140 145 143 131 115 110 108 114 119 136 132 134 127 123
180 235 214 163 152 149 143 147 135 139 215 162 143 140 144 145 147 151 159 164 169 170 169 175 173 172 164 169 174 173 173 166 159 147 136 143 147 150 145 135 134 132 125 130 138 143 156 150 135
193 229 247 165 154 142 168 130 130 177 112 133 145 144 148 152 158 160 160 165 170 174 174 176 177 178 177 180 183 179 174 169 169 166 159 153 155 160 153 145 144 142 134 134 145 142 170 182 174
210 275 248 232 167 144 143 162 177 209 108 131 145 145 154 159 165 172 168 173 178 179 178 181 184 182 184 184 183 183 179 178 171 176 180 166 159 152 151 156 152 149 144 139 154 140 133 140 125
214 221 258 257 188 146 138 146 197 182 139 137 157 154 163 169 171 159 168 178 185 188 184 183 186 183 186 188 186 184 183 182 187 189 181 172 178 195 184 175 167 172 181 164 149 155 144 150 156
259 291 333 12 109 145 120 71 232 141 146 148 165 162 170 173 171 178 181 186 190 193 189 186 186 185 190 189 185 189 191 191 192 205 211 212 224 239 221 219 201 188 168 177 176 156 162 161 130
44 49 67 276 120 153 196 244 199 157 163 156 165 173 172 176 182 187 188 191 193 195 196 189 188 189 189 190 191 194 202 210 206 218 223 209 211 209 198 209 200 192 178 179 170 171 165 161 140
11 144 116 98 171 134 192 252 149 163 174 165 172 179 178 178 186 193 192 195 195 195 195 191 190 190 189 193 197 203 208 223 225 224 234 224 198 211 204 159 175 175 164 165 167 177 177 146 138
185 115 25 115 195 166 186 258 131 166 201 174 179 181 178 189 188 195 192 201 198 193 196 192 190 193 192 196 207 216 224 237 230 241 227 216 212 191 214 176 167 178 170 166 159 166 168 169 204
134 115 118 255 235 200 232 247 168 162 182 184 192 190 189 192 190 192 193 198 197 193 197 198 194 196 198 202 209 215 215 215 226 222 223 226 220 206 202 195 179 178 189 195 189 166 174 160 157
142 95 183 280 174 185 320 314 123 151 191 197 192 194 192 191 187 189 193 192 194 196 200 201 202 201 203 203 199 195 196 203 215 208 217 210 222 214 208 207 204 207 188 183 187 196 194 223 182
153 161 202 185 341 35 109 354 107 56 44 117 202 203 195 195 187 193 187 194 193 202 198 203 206 204 205 204 192 191 198 214 198 208 212 210 211 221 204 203 213 204 184 180 173 200 212 219 199
212 203 188 184 79 187 74 276 321 195 214 243 214 187 190 193 182 189 188 192 194 202 206 207 208 208 207 204 195 194 190 192 204 211 213 211 219 217 210 215 217 208 194 194 195 202 228 216 205
213 137 173 173 136 65 330 80 265 174 229 230 216 207 199 198 188 190 190 194 197 198 204 207 209 209 205 206 205 200 198 202 206 211 217 216 221 220 226 210 212 233 224 214 210 200 202 218 247
108 84 38 44 90 66 230 127 281 191 233 245 217 210 205 204 204 185 193 193 197 199 200 201 205 209 210 209 212 210 205 198 196 202 206 212 222 228 227 231 216 221 219 226 214 206 216 225 248
96 83 23 32 49 207 345 91 231 296 281 234 221 212 205 211 204 199 188 195 195 196 196 196 202 208 209 212 214 216 212 205 205 209 211 219 225 228 228 228 230 229 228 230 224 211 217 221 230
123 151 152 163 168 208 16 194 176 310 328 356 197 194 187 202 219 215 206 195 194 195 196 199 200 206 210 213 217 218 220 209 207 211 215 221 226 229 229 228 231 233 233 223 211 217 224 235 236
157 67 171 105 13 85 241 297 329 360 14 11 23 38 234 202 211 204 212 203 197 197 197 199 201 206 211 213 217 218 219 217 211 211 215 220 228 232 235 236 236 234 237 231 228 225 232 235 247
92 108 75 15 119 142 310 63 309 348 348 347 357 352 328 302 237 219 205 200 199 198 200 201 203 205 211 214 215 220 220 220 220 215 215 220 224 230 240 242 240 236 235 236 236 238 239 241 242
3 19 37 108 98 148 155 279 17 323 325 338 339 341 331 305 277 240 217 209 201 196 195 199 202 204 206 211 213 216 222 223 222 220 218 221 223 229 238 244 242 238 233 232 235 239 243 247 246
70 73 86 115 218 33 113 223 57 353 348 355 348 345 335 325 324 254 224 210 202 200 196 197 199 203 207 210 210 214 221 223 224 224 224 222 224 226 234 243 242 241 238 235 233 235 238 243 251